• In Uzbekistan
  • List of Countries
  • For 7 days
  • Water Temperature
  • Satellite Maps
  • Weather Map
  • Weather Widgets
  • user-avatar
    Login

    Hourly Weather Ganja

    Today, 21 September, Thursday

    Time Temperature Precipitation Wind Pressure Humidity
    00:00 +24°C° 0 mm 1 mps 726 mmHg 48%
    01:00 +24°C° 0 mm 1 mps 726 mmHg 48%
    02:00 +23°C° 0 mm 1 mps 726 mmHg 48%
    03:00 +23°C° 0 mm 1 mps 726 mmHg 49%
    04:00 +23°C° 0.1 mm 1 mps 726 mmHg 49%
    05:00 +23°C° 0.1 mm 1 mps 726 mmHg 49%
    06:00 +23°C° 0.1 mm 1 mps 726 mmHg 49%
    07:00 +25°C° 0 mm 1 mps 726 mmHg 44%
    08:00 +27°C° 0 mm 1 mps 726 mmHg 39%
    09:00 +29°C° 0 mm 1 mps 726 mmHg 34%
    10:00 +30°C° 0 mm 2 mps 726 mmHg 32%
    11:00 +31°C° 0 mm 2 mps 726 mmHg 30%
    12:00 +34°C° 0 mm 2 mps 725 mmHg 28%
    13:00 +34°C° 0 mm 3 mps 725 mmHg 28%
    14:00 +35°C° 0 mm 3 mps 725 mmHg 27%
    15:00 +35°C° 0 mm 3 mps 724 mmHg 27%
    16:00 +34°C° 0 mm 3 mps 724 mmHg 31%
    17:00 +31°C° 0 mm 3 mps 724 mmHg 35%
    18:00 +30°C° 0 mm 3 mps 724 mmHg 38%
    19:00 +29°C° 0 mm 3 mps 724 mmHg 40%
    20:00 +28°C° 0 mm 3 mps 725 mmHg 42%
    21:00 +27°C° 0 mm 3 mps 725 mmHg 44%
    22:00 +26°C° 0 mm 3 mps 725 mmHg 46%
    23:00 +26°C° 0 mm 2 mps 725 mmHg 47%

    Tomorrow, 22 September, Friday

    Time Temperature Precipitation Wind Pressure Humidity
    00:00 +25°C° 0 mm 2 mps 725 mmHg 49%
    01:00 +24°C° 0 mm 2 mps 725 mmHg 51%
    02:00 +24°C° 0 mm 1 mps 725 mmHg 53%
    03:00 +23°C° 0 mm 1 mps 725 mmHg 55%
    04:00 +23°C° 0 mm 1 mps 725 mmHg 55%
    05:00 +23°C° 0 mm 1 mps 725 mmHg 56%
    06:00 +22°C° 0 mm 1 mps 725 mmHg 56%
    07:00 +24°C° 0 mm 1 mps 725 mmHg 50%
    08:00 +26°C° 0 mm 1 mps 724 mmHg 44%
    09:00 +28°C° 0 mm 1 mps 724 mmHg 38%
    10:00 +29°C° 0 mm 2 mps 724 mmHg 35%
    11:00 +30°C° 0 mm 2 mps 724 mmHg 32%
    12:00 +31°C° 0 mm 3 mps 723 mmHg 28%
    13:00 +33°C° 0 mm 3 mps 723 mmHg 28%
    14:00 +33°C° 0 mm 3 mps 723 mmHg 27%
    15:00 +34°C° 0 mm 3 mps 722 mmHg 26%
    16:00 +31°C° 0.1 mm 3 mps 722 mmHg 29%
    17:00 +30°C° 0.1 mm 2 mps 722 mmHg 33%
    18:00 +28°C° 0.1 mm 2 mps 722 mmHg 36%
    19:00 +28°C° 0 mm 2 mps 723 mmHg 38%
    20:00 +27°C° 0 mm 2 mps 723 mmHg 41%
    21:00 +26°C° 0 mm 2 mps 724 mmHg 43%
    22:00 +26°C° 0 mm 2 mps 724 mmHg 44%
    23:00 +25°C° 0 mm 1 mps 724 mmHg 46%

    Day after tomorrow, 23 September, Saturday

    Time Temperature Precipitation Wind Pressure Humidity
    00:00 +25°C° 0 mm 1 mps 724 mmHg 47%
    01:00 +24°C° 0.1 mm 1 mps 724 mmHg 50%
    02:00 +23°C° 0.1 mm 1 mps 725 mmHg 52%
    03:00 +23°C° 0.1 mm 1 mps 725 mmHg 55%
    04:00 +22°C° 0 mm 1 mps 725 mmHg 56%
    05:00 +22°C° 0 mm 1 mps 725 mmHg 57%
    06:00 +22°C° 0 mm 1 mps 725 mmHg 58%
    07:00 +24°C° 0 mm 1 mps 725 mmHg 53%
    08:00 +25°C° 0 mm 1 mps 726 mmHg 47%
    09:00 +27°C° 0 mm 1 mps 726 mmHg 42%
    10:00 +28°C° 0 mm 2 mps 726 mmHg 39%
    11:00 +30°C° 0 mm 3 mps 726 mmHg 36%
    12:00 +32°C° 0 mm 4 mps 725 mmHg 32%
    13:00 +32°C° 0.1 mm 4 mps 725 mmHg 31%
    14:00 +33°C° 0.1 mm 4 mps 725 mmHg 30%
    15:00 +33°C° 0.1 mm 5 mps 724 mmHg 29%
    16:00 +32°C° 0.1 mm 4 mps 725 mmHg 33%
    17:00 +29°C° 0.1 mm 3 mps 725 mmHg 38%
    18:00 +28°C° 0.1 mm 3 mps 725 mmHg 42%
    19:00 +27°C° 0 mm 3 mps 725 mmHg 43%
    20:00 +26°C° 0 mm 3 mps 726 mmHg 44%
    21:00 +25°C° 0 mm 3 mps 726 mmHg 46%
    22:00 +25°C° 0 mm 3 mps 727 mmHg 47%
    23:00 +24°C° 0 mm 2 mps 727 mmHg 48%

    24 September, Sunday

    Time Temperature Precipitation Wind Pressure Humidity
    00:00 +23°C° 0 mm 2 mps 727 mmHg 49%
    01:00 +23°C° 0 mm 2 mps 727 mmHg 49%
    02:00 +21°C° 0 mm 2 mps 727 mmHg 49%
    03:00 +21°C° 0 mm 2 mps 727 mmHg 50%
    04:00 +20°C° 0 mm 2 mps 727 mmHg 50%
    05:00 +20°C° 0 mm 2 mps 727 mmHg 50%
    06:00 +20°C° 0 mm 2 mps 728 mmHg 51%
    07:00 +23°C° 0 mm 2 mps 728 mmHg 45%
    08:00 +25°C° 0 mm 2 mps 728 mmHg 40%
    09:00 +26°C° 0 mm 3 mps 728 mmHg 34%
    10:00 +27°C° 0 mm 2 mps 728 mmHg 32%
    11:00 +28°C° 0 mm 2 mps 728 mmHg 31%
    12:00 +29°C° 0 mm 2 mps 727 mmHg 29%
    13:00 +30°C° 0.1 mm 2 mps 727 mmHg 28%
    14:00 +30°C° 0.1 mm 2 mps 727 mmHg 28%
    15:00 +30°C° 0.1 mm 3 mps 727 mmHg 27%
    16:00 +29°C° 0.1 mm 2 mps 727 mmHg 30%
    17:00 +28°C° 0.1 mm 2 mps 727 mmHg 33%
    18:00 +26°C° 0.1 mm 2 mps 727 mmHg 36%
    19:00 +26°C° 0 mm 2 mps 728 mmHg 38%
    20:00 +25°C° 0 mm 2 mps 728 mmHg 40%
    21:00 +24°C° 0 mm 2 mps 729 mmHg 41%
    22:00 +23°C° 0 mm 2 mps 729 mmHg 45%
    23:00 +23°C° 0 mm 2 mps 729 mmHg 48%

    25 September, Monday

    Time Temperature Precipitation Wind Pressure Humidity
    00:00 +21°C° 0 mm 2 mps 729 mmHg 51%
    01:00 +21°C° 0 mm 2 mps 729 mmHg 54%
    02:00 +21°C° 0 mm 1 mps 728 mmHg 57%
    03:00 +20°C° 0 mm 1 mps 728 mmHg 60%
    04:00 +20°C° 0 mm 1 mps 728 mmHg 62%
    05:00 +20°C° 0 mm 1 mps 728 mmHg 64%
    06:00 +17°C° 0 mm 0 mps 729 mmHg 66%
    07:00 +21°C° 0 mm 1 mps 729 mmHg 61%
    08:00 +23°C° 0 mm 1 mps 729 mmHg 57%
    09:00 +24°C° 0 mm 1 mps 729 mmHg 53%
    10:00 +26°C° 0 mm 2 mps 728 mmHg 49%
    11:00 +27°C° 0 mm 3 mps 728 mmHg 45%
    12:00 +28°C° 0 mm 3 mps 728 mmHg 41%
    13:00 +29°C° 0 mm 3 mps 727 mmHg 40%
    14:00 +29°C° 0 mm 4 mps 727 mmHg 38%
    15:00 +30°C° 0 mm 4 mps 727 mmHg 37%
    16:00 +28°C° 0 mm 4 mps 727 mmHg 41%
    17:00 +27°C° 0 mm 3 mps 727 mmHg 44%
    18:00 +26°C° 0 mm 3 mps 727 mmHg 47%
    19:00 +25°C° 0 mm 3 mps 728 mmHg 50%
    20:00 +23°C° 0 mm 4 mps 728 mmHg 53%
    21:00 +22°C° 0 mm 4 mps 728 mmHg 56%
    22:00 +22°C° 0 mm 4 mps 728 mmHg 60%
    23:00 +21°C° 0 mm 4 mps 728 mmHg 63%

    26 September, Tuesday

    Time Temperature Precipitation Wind Pressure Humidity
    00:00 +20°C° 0 mm 4 mps 728 mmHg 66%
    01:00 +20°C° 0 mm 3 mps 728 mmHg 69%
    02:00 +19°C° 0 mm 3 mps 728 mmHg 71%
    03:00 +19°C° 0 mm 3 mps 727 mmHg 73%
    04:00 +19°C° 0 mm 2 mps 728 mmHg 74%
    05:00 +18°C° 0 mm 2 mps 728 mmHg 76%
    06:00 +18°C° 0 mm 2 mps 728 mmHg 77%
    07:00 +19°C° 0 mm 2 mps 728 mmHg 73%
    08:00 +21°C° 0 mm 2 mps 728 mmHg 69%
    09:00 +22°C° 0 mm 3 mps 728 mmHg 64%
    10:00 +22°C° 0 mm 3 mps 727 mmHg 62%
    11:00 +24°C° 0 mm 3 mps 727 mmHg 60%
    12:00 +25°C° 0 mm 4 mps 727 mmHg 58%
    13:00 +25°C° 0 mm 4 mps 726 mmHg 57%
    14:00 +25°C° 0 mm 4 mps 726 mmHg 56%
    15:00 +26°C° 0 mm 4 mps 725 mmHg 55%
    16:00 +25°C° 0 mm 4 mps 725 mmHg 60%
    17:00 +23°C° 0 mm 4 mps 725 mmHg 64%
    18:00 +22°C° 0 mm 4 mps 726 mmHg 68%
    19:00 +21°C° 0 mm 4 mps 726 mmHg 70%
    20:00 +21°C° 0 mm 4 mps 726 mmHg 73%
    21:00 +20°C° 0 mm 4 mps 726 mmHg 75%
    22:00 +20°C° 0 mm 4 mps 726 mmHg 77%
    23:00 +19°C° 0 mm 4 mps 726 mmHg 79%
    Show more